<?xml version="1.0" encoding="UTF-8" standalone="no" ?>
<gpx xmlns="http://www.topografix.com/GPX/1/1" xmlns:xsi="http://www.w3.org/2001/XMLSchema-instance" xsi:schemaLocation="http://www.topografix.com/GPX/1/1 http://www.topografix.com/GPX/1/1/gpx.xsd" version="1.1" creator="VisuGPX - https://www.visugpx.com">
  <metadata>
    <name>Turquant</name>
  </metadata>
  <trk>
    <name><![CDATA[Turquant_1]]></name>
    <trkseg>
      <trkpt lat="47.25568" lon="-0.0713">
        <ele>75.5</ele>
        <time>2011-09-22T09:24:34Z</time>
      </trkpt>
      <trkpt lat="47.25591" lon="-0.07068">
        <ele>77.1</ele>
        <time>2011-09-22T09:24:34Z</time>
      </trkpt>
      <trkpt lat="47.25596" lon="-0.07041">
        <ele>76.9</ele>
        <time>2011-09-22T09:24:34Z</time>
      </trkpt>
      <trkpt lat="47.25591" lon="-0.07013">
        <ele>77.5</ele>
        <time>2011-09-22T09:24:34Z</time>
      </trkpt>
      <trkpt lat="47.25555" lon="-0.0693">
        <ele>82.5</ele>
        <time>2011-09-22T09:24:34Z</time>
      </trkpt>
      <trkpt lat="47.25378" lon="-0.06678">
        <ele>84.3</ele>
        <time>2011-09-22T09:24:34Z</time>
      </trkpt>
      <trkpt lat="47.25331" lon="-0.06618">
        <ele>84.4</ele>
        <time>2011-09-22T09:24:34Z</time>
      </trkpt>
      <trkpt lat="47.25311" lon="-0.06581">
        <ele>85.4</ele>
        <time>2011-09-22T09:24:34Z</time>
      </trkpt>
      <trkpt lat="47.25289" lon="-0.06507">
        <ele>84.7</ele>
        <time>2011-09-22T09:24:34Z</time>
      </trkpt>
      <trkpt lat="47.25171" lon="-0.06338">
        <ele>90.1</ele>
        <time>2011-09-22T09:24:34Z</time>
      </trkpt>
      <trkpt lat="47.25089" lon="-0.06274">
        <ele>92.7</ele>
        <time>2011-09-22T09:24:34Z</time>
      </trkpt>
      <trkpt lat="47.24981" lon="-0.06017">
        <ele>88.9</ele>
        <time>2011-09-22T09:24:34Z</time>
      </trkpt>
      <trkpt lat="47.24868" lon="-0.05881">
        <ele>85.2</ele>
        <time>2011-09-22T09:24:34Z</time>
      </trkpt>
      <trkpt lat="47.24836" lon="-0.05729">
        <ele>87.2</ele>
        <time>2011-09-22T09:24:34Z</time>
      </trkpt>
      <trkpt lat="47.24695" lon="-0.05388">
        <ele>93</ele>
        <time>2011-09-22T09:24:34Z</time>
      </trkpt>
      <trkpt lat="47.24619" lon="-0.05216">
        <ele>92.3</ele>
        <time>2011-09-22T09:24:34Z</time>
      </trkpt>
      <trkpt lat="47.2459" lon="-0.05172">
        <ele>90.5</ele>
        <time>2011-09-22T09:24:34Z</time>
      </trkpt>
      <trkpt lat="47.24498" lon="-0.05083">
        <ele>88.9</ele>
        <time>2011-09-22T09:24:34Z</time>
      </trkpt>
      <trkpt lat="47.24422" lon="-0.05167">
        <ele>84.2</ele>
        <time>2011-09-22T09:24:34Z</time>
      </trkpt>
      <trkpt lat="47.24356" lon="-0.05227">
        <ele>81.6</ele>
        <time>2011-09-22T09:24:34Z</time>
      </trkpt>
      <trkpt lat="47.24294" lon="-0.05294">
        <ele>77.4</ele>
        <time>2011-09-22T09:24:34Z</time>
      </trkpt>
      <trkpt lat="47.24263" lon="-0.05311">
        <ele>75</ele>
        <time>2011-09-22T09:24:34Z</time>
      </trkpt>
      <trkpt lat="47.24205" lon="-0.05349">
        <ele>69.2</ele>
        <time>2011-09-22T09:24:34Z</time>
      </trkpt>
      <trkpt lat="47.24201" lon="-0.05333">
        <ele>68.7</ele>
        <time>2011-09-22T09:24:34Z</time>
      </trkpt>
      <trkpt lat="47.2415" lon="-0.05215">
        <ele>70.5</ele>
        <time>2011-09-22T09:24:34Z</time>
      </trkpt>
      <trkpt lat="47.24141" lon="-0.05189">
        <ele>70.6</ele>
        <time>2011-09-22T09:24:34Z</time>
      </trkpt>
      <trkpt lat="47.24138" lon="-0.05169">
        <ele>71.8</ele>
        <time>2011-09-22T09:24:34Z</time>
      </trkpt>
      <trkpt lat="47.24148" lon="-0.05079">
        <ele>72.9</ele>
        <time>2011-09-22T09:24:34Z</time>
      </trkpt>
      <trkpt lat="47.24149" lon="-0.05033">
        <ele>72.7</ele>
        <time>2011-09-22T09:24:34Z</time>
      </trkpt>
      <trkpt lat="47.24148" lon="-0.0499">
        <ele>72.3</ele>
        <time>2011-09-22T09:24:34Z</time>
      </trkpt>
      <trkpt lat="47.24146" lon="-0.04949">
        <ele>72</ele>
        <time>2011-09-22T09:24:34Z</time>
      </trkpt>
      <trkpt lat="47.24143" lon="-0.049">
        <ele>72</ele>
        <time>2011-09-22T09:24:34Z</time>
      </trkpt>
      <trkpt lat="47.24141" lon="-0.04847">
        <ele>71.9</ele>
        <time>2011-09-22T09:24:34Z</time>
      </trkpt>
      <trkpt lat="47.24137" lon="-0.04788">
        <ele>72</ele>
        <time>2011-09-22T09:24:34Z</time>
      </trkpt>
      <trkpt lat="47.24129" lon="-0.04738">
        <ele>72</ele>
        <time>2011-09-22T09:24:34Z</time>
      </trkpt>
      <trkpt lat="47.24117" lon="-0.04677">
        <ele>72.8</ele>
        <time>2011-09-22T09:24:34Z</time>
      </trkpt>
      <trkpt lat="47.24115" lon="-0.04644">
        <ele>72.9</ele>
        <time>2011-09-22T09:24:34Z</time>
      </trkpt>
      <trkpt lat="47.24114" lon="-0.04606">
        <ele>73</ele>
        <time>2011-09-22T09:24:34Z</time>
      </trkpt>
      <trkpt lat="47.24113" lon="-0.04567">
        <ele>73.6</ele>
        <time>2011-09-22T09:24:34Z</time>
      </trkpt>
      <trkpt lat="47.24088" lon="-0.0454">
        <ele>73.9</ele>
        <time>2011-09-22T09:24:34Z</time>
      </trkpt>
      <trkpt lat="47.24065" lon="-0.04512">
        <ele>74.4</ele>
        <time>2011-09-22T09:24:34Z</time>
      </trkpt>
      <trkpt lat="47.24047" lon="-0.04485">
        <ele>74.6</ele>
        <time>2011-09-22T09:24:34Z</time>
      </trkpt>
      <trkpt lat="47.24022" lon="-0.04452">
        <ele>75.2</ele>
        <time>2011-09-22T09:24:34Z</time>
      </trkpt>
      <trkpt lat="47.24008" lon="-0.04436">
        <ele>75.8</ele>
        <time>2011-09-22T09:24:34Z</time>
      </trkpt>
      <trkpt lat="47.23997" lon="-0.04424">
        <ele>76.1</ele>
        <time>2011-09-22T09:24:34Z</time>
      </trkpt>
      <trkpt lat="47.23978" lon="-0.04413">
        <ele>76.7</ele>
        <time>2011-09-22T09:24:34Z</time>
      </trkpt>
      <trkpt lat="47.23945" lon="-0.04398">
        <ele>77</ele>
        <time>2011-09-22T09:24:34Z</time>
      </trkpt>
      <trkpt lat="47.23924" lon="-0.04384">
        <ele>77.7</ele>
        <time>2011-09-22T09:24:34Z</time>
      </trkpt>
      <trkpt lat="47.23913" lon="-0.04375">
        <ele>78.1</ele>
        <time>2011-09-22T09:24:34Z</time>
      </trkpt>
      <trkpt lat="47.23904" lon="-0.04339">
        <ele>77.7</ele>
        <time>2011-09-22T09:24:34Z</time>
      </trkpt>
      <trkpt lat="47.23896" lon="-0.04291">
        <ele>78.4</ele>
        <time>2011-09-22T09:24:34Z</time>
      </trkpt>
      <trkpt lat="47.23892" lon="-0.04267">
        <ele>79.2</ele>
        <time>2011-09-22T09:24:34Z</time>
      </trkpt>
      <trkpt lat="47.23885" lon="-0.04245">
        <ele>79.7</ele>
        <time>2011-09-22T09:24:34Z</time>
      </trkpt>
      <trkpt lat="47.23873" lon="-0.04217">
        <ele>79.6</ele>
        <time>2011-09-22T09:24:34Z</time>
      </trkpt>
      <trkpt lat="47.23855" lon="-0.04177">
        <ele>80</ele>
        <time>2011-09-22T09:24:34Z</time>
      </trkpt>
      <trkpt lat="47.23827" lon="-0.04116">
        <ele>81</ele>
        <time>2011-09-22T09:24:34Z</time>
      </trkpt>
      <trkpt lat="47.23796" lon="-0.04046">
        <ele>81.5</ele>
        <time>2011-09-22T09:24:34Z</time>
      </trkpt>
      <trkpt lat="47.23779" lon="-0.03996">
        <ele>82.1</ele>
        <time>2011-09-22T09:24:34Z</time>
      </trkpt>
      <trkpt lat="47.23752" lon="-0.03909">
        <ele>83</ele>
        <time>2011-09-22T09:24:34Z</time>
      </trkpt>
      <trkpt lat="47.23725" lon="-0.03838">
        <ele>83.8</ele>
        <time>2011-09-22T09:24:34Z</time>
      </trkpt>
      <trkpt lat="47.237" lon="-0.03771">
        <ele>84.3</ele>
        <time>2011-09-22T09:24:34Z</time>
      </trkpt>
      <trkpt lat="47.23691" lon="-0.03747">
        <ele>84.9</ele>
        <time>2011-09-22T09:24:34Z</time>
      </trkpt>
      <trkpt lat="47.23687" lon="-0.03727">
        <ele>85</ele>
        <time>2011-09-22T09:24:34Z</time>
      </trkpt>
      <trkpt lat="47.23689" lon="-0.03705">
        <ele>85</ele>
        <time>2011-09-22T09:24:34Z</time>
      </trkpt>
      <trkpt lat="47.23702" lon="-0.03687">
        <ele>85</ele>
        <time>2011-09-22T09:24:34Z</time>
      </trkpt>
      <trkpt lat="47.2372" lon="-0.03655">
        <ele>83.3</ele>
        <time>2011-09-22T09:24:34Z</time>
      </trkpt>
      <trkpt lat="47.23737" lon="-0.03626">
        <ele>80.1</ele>
        <time>2011-09-22T09:24:34Z</time>
      </trkpt>
      <trkpt lat="47.23754" lon="-0.03604">
        <ele>77.2</ele>
        <time>2011-09-22T09:24:34Z</time>
      </trkpt>
      <trkpt lat="47.23772" lon="-0.03585">
        <ele>75.8</ele>
        <time>2011-09-22T09:24:34Z</time>
      </trkpt>
      <trkpt lat="47.23808" lon="-0.03552">
        <ele>72.6</ele>
        <time>2011-09-22T09:24:34Z</time>
      </trkpt>
      <trkpt lat="47.23842" lon="-0.03522">
        <ele>70.7</ele>
        <time>2011-09-22T09:24:34Z</time>
      </trkpt>
      <trkpt lat="47.23871" lon="-0.03499">
        <ele>69.3</ele>
        <time>2011-09-22T09:24:34Z</time>
      </trkpt>
      <trkpt lat="47.23893" lon="-0.0348">
        <ele>68.7</ele>
        <time>2011-09-22T09:24:34Z</time>
      </trkpt>
      <trkpt lat="47.2391" lon="-0.03458">
        <ele>68.7</ele>
        <time>2011-09-22T09:24:34Z</time>
      </trkpt>
      <trkpt lat="47.23873" lon="-0.03405">
        <ele>62.4</ele>
        <time>2011-09-22T09:24:34Z</time>
      </trkpt>
      <trkpt lat="47.23853" lon="-0.03373">
        <ele>60.9</ele>
        <time>2011-09-22T09:24:34Z</time>
      </trkpt>
      <trkpt lat="47.23843" lon="-0.03343">
        <ele>61.3</ele>
        <time>2011-09-22T09:24:34Z</time>
      </trkpt>
      <trkpt lat="47.23849" lon="-0.03319">
        <ele>59.8</ele>
        <time>2011-09-22T09:24:34Z</time>
      </trkpt>
      <trkpt lat="47.23859" lon="-0.03302">
        <ele>58</ele>
        <time>2011-09-22T09:24:34Z</time>
      </trkpt>
      <trkpt lat="47.23876" lon="-0.03286">
        <ele>56.6</ele>
        <time>2011-09-22T09:24:34Z</time>
      </trkpt>
      <trkpt lat="47.2392" lon="-0.03258">
        <ele>55.5</ele>
        <time>2011-09-22T09:24:34Z</time>
      </trkpt>
      <trkpt lat="47.23948" lon="-0.03226">
        <ele>54.4</ele>
        <time>2011-09-22T09:24:34Z</time>
      </trkpt>
      <trkpt lat="47.23969" lon="-0.03199">
        <ele>52.4</ele>
        <time>2011-09-22T09:24:34Z</time>
      </trkpt>
      <trkpt lat="47.23998" lon="-0.03159">
        <ele>49.8</ele>
        <time>2011-09-22T09:24:34Z</time>
      </trkpt>
      <trkpt lat="47.2405" lon="-0.03048">
        <ele>46.2</ele>
        <time>2011-09-22T09:24:34Z</time>
      </trkpt>
      <trkpt lat="47.24074" lon="-0.02984">
        <ele>43</ele>
        <time>2011-09-22T09:24:34Z</time>
      </trkpt>
      <trkpt lat="47.24076" lon="-0.02969">
        <ele>43</ele>
        <time>2011-09-22T09:24:34Z</time>
      </trkpt>
      <trkpt lat="47.24086" lon="-0.02956">
        <ele>42.9</ele>
        <time>2011-09-22T09:24:34Z</time>
      </trkpt>
      <trkpt lat="47.24162" lon="-0.02842">
        <ele>38.1</ele>
        <time>2011-09-22T09:24:34Z</time>
      </trkpt>
      <trkpt lat="47.24148" lon="-0.02834">
        <ele>41</ele>
        <time>2011-09-22T09:24:34Z</time>
      </trkpt>
      <trkpt lat="47.24128" lon="-0.02853">
        <ele>43.7</ele>
        <time>2011-09-22T09:24:34Z</time>
      </trkpt>
      <trkpt lat="47.24101" lon="-0.02845">
        <ele>50.3</ele>
        <time>2011-09-22T09:24:34Z</time>
      </trkpt>
      <trkpt lat="47.24042" lon="-0.02813">
        <ele>61.9</ele>
        <time>2011-09-22T09:24:34Z</time>
      </trkpt>
      <trkpt lat="47.24016" lon="-0.02819">
        <ele>65.8</ele>
        <time>2011-09-22T09:24:34Z</time>
      </trkpt>
      <trkpt lat="47.23954" lon="-0.02831">
        <ele>76.9</ele>
        <time>2011-09-22T09:24:34Z</time>
      </trkpt>
      <trkpt lat="47.23898" lon="-0.02875">
        <ele>82.7</ele>
        <time>2011-09-22T09:24:34Z</time>
      </trkpt>
      <trkpt lat="47.23895" lon="-0.02884">
        <ele>82.5</ele>
        <time>2011-09-22T09:24:34Z</time>
      </trkpt>
      <trkpt lat="47.23862" lon="-0.0291">
        <ele>84.2</ele>
        <time>2011-09-22T09:24:34Z</time>
      </trkpt>
      <trkpt lat="47.23829" lon="-0.02931">
        <ele>84.4</ele>
        <time>2011-09-22T09:24:34Z</time>
      </trkpt>
      <trkpt lat="47.23818" lon="-0.02942">
        <ele>84</ele>
        <time>2011-09-22T09:24:34Z</time>
      </trkpt>
      <trkpt lat="47.23797" lon="-0.02976">
        <ele>84</ele>
        <time>2011-09-22T09:24:34Z</time>
      </trkpt>
      <trkpt lat="47.23789" lon="-0.02994">
        <ele>84.5</ele>
        <time>2011-09-22T09:24:34Z</time>
      </trkpt>
      <trkpt lat="47.23784" lon="-0.03002">
        <ele>84.8</ele>
        <time>2011-09-22T09:24:34Z</time>
      </trkpt>
      <trkpt lat="47.2377" lon="-0.03014">
        <ele>84.4</ele>
        <time>2011-09-22T09:24:34Z</time>
      </trkpt>
      <trkpt lat="47.23759" lon="-0.03026">
        <ele>83.6</ele>
        <time>2011-09-22T09:24:34Z</time>
      </trkpt>
      <trkpt lat="47.23741" lon="-0.02959">
        <ele>81.1</ele>
        <time>2011-09-22T09:24:34Z</time>
      </trkpt>
      <trkpt lat="47.23725" lon="-0.0293">
        <ele>77.4</ele>
        <time>2011-09-22T09:24:34Z</time>
      </trkpt>
      <trkpt lat="47.23698" lon="-0.0289">
        <ele>70.7</ele>
        <time>2011-09-22T09:24:34Z</time>
      </trkpt>
      <trkpt lat="47.23667" lon="-0.02851">
        <ele>68.1</ele>
        <time>2011-09-22T09:24:34Z</time>
      </trkpt>
      <trkpt lat="47.23638" lon="-0.02803">
        <ele>67.2</ele>
        <time>2011-09-22T09:24:34Z</time>
      </trkpt>
      <trkpt lat="47.23611" lon="-0.02742">
        <ele>65.7</ele>
        <time>2011-09-22T09:24:34Z</time>
      </trkpt>
      <trkpt lat="47.23602" lon="-0.027">
        <ele>66.4</ele>
        <time>2011-09-22T09:24:34Z</time>
      </trkpt>
      <trkpt lat="47.23593" lon="-0.0262">
        <ele>63.4</ele>
        <time>2011-09-22T09:24:34Z</time>
      </trkpt>
      <trkpt lat="47.23595" lon="-0.02568">
        <ele>60.5</ele>
        <time>2011-09-22T09:24:34Z</time>
      </trkpt>
      <trkpt lat="47.23598" lon="-0.02537">
        <ele>58.8</ele>
        <time>2011-09-22T09:24:34Z</time>
      </trkpt>
      <trkpt lat="47.23609" lon="-0.02506">
        <ele>57.5</ele>
        <time>2011-09-22T09:24:34Z</time>
      </trkpt>
      <trkpt lat="47.23644" lon="-0.02468">
        <ele>55.8</ele>
        <time>2011-09-22T09:24:34Z</time>
      </trkpt>
      <trkpt lat="47.23676" lon="-0.02446">
        <ele>54.9</ele>
        <time>2011-09-22T09:24:34Z</time>
      </trkpt>
      <trkpt lat="47.23698" lon="-0.02436">
        <ele>54.7</ele>
        <time>2011-09-22T09:24:34Z</time>
      </trkpt>
      <trkpt lat="47.23714" lon="-0.02429">
        <ele>53.1</ele>
        <time>2011-09-22T09:24:34Z</time>
      </trkpt>
      <trkpt lat="47.23755" lon="-0.02421">
        <ele>50.9</ele>
        <time>2011-09-22T09:24:34Z</time>
      </trkpt>
      <trkpt lat="47.23761" lon="-0.02412">
        <ele>50.5</ele>
        <time>2011-09-22T09:24:34Z</time>
      </trkpt>
      <trkpt lat="47.2376" lon="-0.02359">
        <ele>48.7</ele>
        <time>2011-09-22T09:24:34Z</time>
      </trkpt>
      <trkpt lat="47.23764" lon="-0.02313">
        <ele>50.1</ele>
        <time>2011-09-22T09:24:34Z</time>
      </trkpt>
      <trkpt lat="47.23766" lon="-0.0228">
        <ele>51.3</ele>
        <time>2011-09-22T09:24:34Z</time>
      </trkpt>
      <trkpt lat="47.23748" lon="-0.02286">
        <ele>51.9</ele>
        <time>2011-09-22T09:24:34Z</time>
      </trkpt>
      <trkpt lat="47.23715" lon="-0.02112">
        <ele>55</ele>
        <time>2011-09-22T09:24:34Z</time>
      </trkpt>
      <trkpt lat="47.23638" lon="-0.01832">
        <ele>54.9</ele>
        <time>2011-09-22T09:24:34Z</time>
      </trkpt>
      <trkpt lat="47.23532" lon="-0.01896">
        <ele>51.4</ele>
        <time>2011-09-22T09:24:34Z</time>
      </trkpt>
      <trkpt lat="47.23448" lon="-0.01966">
        <ele>50</ele>
        <time>2011-09-22T09:24:34Z</time>
      </trkpt>
      <trkpt lat="47.23456" lon="-0.01995">
        <ele>51.3</ele>
        <time>2011-09-22T09:24:34Z</time>
      </trkpt>
      <trkpt lat="47.23401" lon="-0.02031">
        <ele>49.4</ele>
        <time>2011-09-22T09:24:34Z</time>
      </trkpt>
      <trkpt lat="47.23364" lon="-0.02049">
        <ele>47.9</ele>
        <time>2011-09-22T09:24:34Z</time>
      </trkpt>
      <trkpt lat="47.23344" lon="-0.02096">
        <ele>48.6</ele>
        <time>2011-09-22T09:24:34Z</time>
      </trkpt>
      <trkpt lat="47.23299" lon="-0.02138">
        <ele>48.7</ele>
        <time>2011-09-22T09:24:34Z</time>
      </trkpt>
      <trkpt lat="47.23279" lon="-0.02151">
        <ele>48.1</ele>
        <time>2011-09-22T09:24:34Z</time>
      </trkpt>
      <trkpt lat="47.23192" lon="-0.02181">
        <ele>49.1</ele>
        <time>2011-09-22T09:24:34Z</time>
      </trkpt>
      <trkpt lat="47.23159" lon="-0.02199">
        <ele>49.9</ele>
        <time>2011-09-22T09:24:34Z</time>
      </trkpt>
      <trkpt lat="47.23123" lon="-0.0223">
        <ele>50.6</ele>
        <time>2011-09-22T09:24:34Z</time>
      </trkpt>
      <trkpt lat="47.23103" lon="-0.0225">
        <ele>51.3</ele>
        <time>2011-09-22T09:24:34Z</time>
      </trkpt>
      <trkpt lat="47.23032" lon="-0.02297">
        <ele>54.6</ele>
        <time>2011-09-22T09:24:34Z</time>
      </trkpt>
      <trkpt lat="47.23025" lon="-0.02307">
        <ele>55.1</ele>
        <time>2011-09-22T09:24:34Z</time>
      </trkpt>
      <trkpt lat="47.22997" lon="-0.02326">
        <ele>56.2</ele>
        <time>2011-09-22T09:24:34Z</time>
      </trkpt>
      <trkpt lat="47.22984" lon="-0.0235">
        <ele>57.8</ele>
        <time>2011-09-22T09:24:34Z</time>
      </trkpt>
      <trkpt lat="47.22919" lon="-0.02405">
        <ele>61.9</ele>
        <time>2011-09-22T09:24:34Z</time>
      </trkpt>
      <trkpt lat="47.22847" lon="-0.02485">
        <ele>73.3</ele>
        <time>2011-09-22T09:24:34Z</time>
      </trkpt>
      <trkpt lat="47.22722" lon="-0.025">
        <ele>83</ele>
        <time>2011-09-22T09:24:34Z</time>
      </trkpt>
      <trkpt lat="47.22713" lon="-0.02476">
        <ele>83.3</ele>
        <time>2011-09-22T09:24:34Z</time>
      </trkpt>
      <trkpt lat="47.22697" lon="-0.02448">
        <ele>83.9</ele>
        <time>2011-09-22T09:24:34Z</time>
      </trkpt>
      <trkpt lat="47.2267" lon="-0.02407">
        <ele>82.6</ele>
        <time>2011-09-22T09:24:34Z</time>
      </trkpt>
      <trkpt lat="47.22637" lon="-0.02368">
        <ele>83.1</ele>
        <time>2011-09-22T09:24:34Z</time>
      </trkpt>
      <trkpt lat="47.226" lon="-0.02328">
        <ele>84.1</ele>
        <time>2011-09-22T09:24:34Z</time>
      </trkpt>
      <trkpt lat="47.22553" lon="-0.02302">
        <ele>84</ele>
        <time>2011-09-22T09:24:34Z</time>
      </trkpt>
      <trkpt lat="47.22556" lon="-0.02226">
        <ele>84</ele>
        <time>2011-09-22T09:24:34Z</time>
      </trkpt>
      <trkpt lat="47.22555" lon="-0.02207">
        <ele>84</ele>
        <time>2011-09-22T09:24:34Z</time>
      </trkpt>
      <trkpt lat="47.22467" lon="-0.02029">
        <ele>84.2</ele>
        <time>2011-09-22T09:24:34Z</time>
      </trkpt>
      <trkpt lat="47.22415" lon="-0.01978">
        <ele>84</ele>
        <time>2011-09-22T09:24:34Z</time>
      </trkpt>
      <trkpt lat="47.22369" lon="-0.01906">
        <ele>83.7</ele>
        <time>2011-09-22T09:24:34Z</time>
      </trkpt>
      <trkpt lat="47.22309" lon="-0.01813">
        <ele>83.9</ele>
        <time>2011-09-22T09:24:34Z</time>
      </trkpt>
      <trkpt lat="47.22347" lon="-0.018">
        <ele>81.6</ele>
        <time>2011-09-22T09:24:34Z</time>
      </trkpt>
      <trkpt lat="47.2245" lon="-0.01584">
        <ele>60.6</ele>
        <time>2011-09-22T09:24:34Z</time>
      </trkpt>
      <trkpt lat="47.22518" lon="-0.01452">
        <ele>56.7</ele>
        <time>2011-09-22T09:24:34Z</time>
      </trkpt>
      <trkpt lat="47.22587" lon="-0.01323">
        <ele>54.1</ele>
        <time>2011-09-22T09:24:34Z</time>
      </trkpt>
      <trkpt lat="47.22614" lon="-0.01281">
        <ele>53.8</ele>
        <time>2011-09-22T09:24:34Z</time>
      </trkpt>
      <trkpt lat="47.22604" lon="-0.01249">
        <ele>55</ele>
        <time>2011-09-22T09:24:34Z</time>
      </trkpt>
      <trkpt lat="47.22594" lon="-0.01204">
        <ele>56.3</ele>
        <time>2011-09-22T09:24:34Z</time>
      </trkpt>
      <trkpt lat="47.22586" lon="-0.01144">
        <ele>56.9</ele>
        <time>2011-09-22T09:24:34Z</time>
      </trkpt>
      <trkpt lat="47.22552" lon="-0.00969">
        <ele>60.3</ele>
        <time>2011-09-22T09:24:34Z</time>
      </trkpt>
      <trkpt lat="47.2255" lon="-0.00937">
        <ele>61.2</ele>
        <time>2011-09-22T09:24:34Z</time>
      </trkpt>
      <trkpt lat="47.2255" lon="-0.00895">
        <ele>62</ele>
        <time>2011-09-22T09:24:34Z</time>
      </trkpt>
      <trkpt lat="47.22544" lon="-0.00848">
        <ele>62.8</ele>
        <time>2011-09-22T09:24:34Z</time>
      </trkpt>
      <trkpt lat="47.22542" lon="-0.00762">
        <ele>64</ele>
        <time>2011-09-22T09:24:34Z</time>
      </trkpt>
      <trkpt lat="47.22548" lon="-0.00725">
        <ele>64.5</ele>
        <time>2011-09-22T09:24:34Z</time>
      </trkpt>
      <trkpt lat="47.2255" lon="-0.00696">
        <ele>65.3</ele>
        <time>2011-09-22T09:24:34Z</time>
      </trkpt>
      <trkpt lat="47.22551" lon="-0.0064">
        <ele>66.5</ele>
        <time>2011-09-22T09:24:34Z</time>
      </trkpt>
      <trkpt lat="47.22547" lon="-0.00601">
        <ele>67.6</ele>
        <time>2011-09-22T09:24:34Z</time>
      </trkpt>
      <trkpt lat="47.22549" lon="-0.00575">
        <ele>67.7</ele>
        <time>2011-09-22T09:24:34Z</time>
      </trkpt>
      <trkpt lat="47.22611" lon="-0.00536">
        <ele>64.7</ele>
        <time>2011-09-22T09:24:34Z</time>
      </trkpt>
      <trkpt lat="47.22678" lon="-0.00501">
        <ele>61.5</ele>
        <time>2011-09-22T09:24:34Z</time>
      </trkpt>
      <trkpt lat="47.22725" lon="-0.00489">
        <ele>59.9</ele>
        <time>2011-09-22T09:24:34Z</time>
      </trkpt>
      <trkpt lat="47.22782" lon="-0.00476">
        <ele>59.9</ele>
        <time>2011-09-22T09:24:34Z</time>
      </trkpt>
      <trkpt lat="47.22797" lon="-0.00472">
        <ele>60</ele>
        <time>2011-09-22T09:24:34Z</time>
      </trkpt>
      <trkpt lat="47.22833" lon="-0.00453">
        <ele>59</ele>
        <time>2011-09-22T09:24:34Z</time>
      </trkpt>
      <trkpt lat="47.22953" lon="-0.00381">
        <ele>58.8</ele>
        <time>2011-09-22T09:24:34Z</time>
      </trkpt>
      <trkpt lat="47.23167" lon="-0.00255">
        <ele>58</ele>
        <time>2011-09-22T09:24:34Z</time>
      </trkpt>
      <trkpt lat="47.2315" lon="-0.00193">
        <ele>58</ele>
        <time>2011-09-22T09:24:34Z</time>
      </trkpt>
      <trkpt lat="47.2312" lon="-0.00088">
        <ele>57.7</ele>
        <time>2011-09-22T09:24:34Z</time>
      </trkpt>
      <trkpt lat="47.23096" lon="-0.00065">
        <ele>57.7</ele>
        <time>2011-09-22T09:24:34Z</time>
      </trkpt>
      <trkpt lat="47.23081" lon="-0.00025">
        <ele>56.9</ele>
        <time>2011-09-22T09:24:34Z</time>
      </trkpt>
      <trkpt lat="47.23074" lon="2.0E-5">
        <ele>56.3</ele>
        <time>2011-09-22T09:24:34Z</time>
      </trkpt>
      <trkpt lat="47.23058" lon="0.00043">
        <ele>55.8</ele>
        <time>2011-09-22T09:24:34Z</time>
      </trkpt>
      <trkpt lat="47.23051" lon="0.00052">
        <ele>55.6</ele>
        <time>2011-09-22T09:24:34Z</time>
      </trkpt>
      <trkpt lat="47.23037" lon="0.0011">
        <ele>54.1</ele>
        <time>2011-09-22T09:24:34Z</time>
      </trkpt>
      <trkpt lat="47.22944" lon="0.00066">
        <ele>58</ele>
        <time>2011-09-22T09:24:34Z</time>
      </trkpt>
      <trkpt lat="47.22908" lon="0.00245">
        <ele>54.8</ele>
        <time>2011-09-22T09:24:34Z</time>
      </trkpt>
      <trkpt lat="47.22916" lon="0.00252">
        <ele>55.2</ele>
        <time>2011-09-22T09:24:34Z</time>
      </trkpt>
      <trkpt lat="47.22891" lon="0.00348">
        <ele>59.5</ele>
        <time>2011-09-22T09:24:34Z</time>
      </trkpt>
      <trkpt lat="47.22953" lon="0.00388">
        <ele>59.7</ele>
        <time>2011-09-22T09:24:34Z</time>
      </trkpt>
      <trkpt lat="47.23013" lon="0.00443">
        <ele>59</ele>
        <time>2011-09-22T09:24:34Z</time>
      </trkpt>
      <trkpt lat="47.23029" lon="0.00454">
        <ele>58.6</ele>
        <time>2011-09-22T09:24:34Z</time>
      </trkpt>
      <trkpt lat="47.23048" lon="0.00464">
        <ele>58.1</ele>
        <time>2011-09-22T09:24:34Z</time>
      </trkpt>
      <trkpt lat="47.23041" lon="0.00491">
        <ele>58</ele>
        <time>2011-09-22T09:24:34Z</time>
      </trkpt>
      <trkpt lat="47.23045" lon="0.00511">
        <ele>58.1</ele>
        <time>2011-09-22T09:24:34Z</time>
      </trkpt>
      <trkpt lat="47.23058" lon="0.00523">
        <ele>57.9</ele>
        <time>2011-09-22T09:24:34Z</time>
      </trkpt>
      <trkpt lat="47.23062" lon="0.00533">
        <ele>57.9</ele>
        <time>2011-09-22T09:24:34Z</time>
      </trkpt>
      <trkpt lat="47.23061" lon="0.00545">
        <ele>58.4</ele>
        <time>2011-09-22T09:24:34Z</time>
      </trkpt>
      <trkpt lat="47.23009" lon="0.00694">
        <ele>59</ele>
        <time>2011-09-22T09:24:34Z</time>
      </trkpt>
      <trkpt lat="47.23031" lon="0.00713">
        <ele>59</ele>
        <time>2011-09-22T09:24:34Z</time>
      </trkpt>
      <trkpt lat="47.23044" lon="0.00735">
        <ele>59.3</ele>
        <time>2011-09-22T09:24:34Z</time>
      </trkpt>
      <trkpt lat="47.2306" lon="0.00767">
        <ele>60.1</ele>
        <time>2011-09-22T09:24:34Z</time>
      </trkpt>
      <trkpt lat="47.23079" lon="0.00791">
        <ele>61.3</ele>
        <time>2011-09-22T09:24:34Z</time>
      </trkpt>
      <trkpt lat="47.23114" lon="0.00816">
        <ele>63</ele>
        <time>2011-09-22T09:24:34Z</time>
      </trkpt>
      <trkpt lat="47.23118" lon="0.00835">
        <ele>63.3</ele>
        <time>2011-09-22T09:24:34Z</time>
      </trkpt>
      <trkpt lat="47.2311" lon="0.00897">
        <ele>64</ele>
        <time>2011-09-22T09:24:34Z</time>
      </trkpt>
      <trkpt lat="47.23111" lon="0.00935">
        <ele>64</ele>
        <time>2011-09-22T09:24:34Z</time>
      </trkpt>
      <trkpt lat="47.23108" lon="0.00961">
        <ele>63.5</ele>
        <time>2011-09-22T09:24:34Z</time>
      </trkpt>
      <trkpt lat="47.23094" lon="0.0101">
        <ele>61.5</ele>
        <time>2011-09-22T09:24:34Z</time>
      </trkpt>
      <trkpt lat="47.23074" lon="0.01066">
        <ele>61.1</ele>
        <time>2011-09-22T09:24:34Z</time>
      </trkpt>
      <trkpt lat="47.23057" lon="0.01103">
        <ele>64.2</ele>
        <time>2011-09-22T09:24:34Z</time>
      </trkpt>
      <trkpt lat="47.2304" lon="0.01151">
        <ele>60.6</ele>
        <time>2011-09-22T09:24:34Z</time>
      </trkpt>
      <trkpt lat="47.23017" lon="0.01191">
        <ele>61</ele>
        <time>2011-09-22T09:24:34Z</time>
      </trkpt>
      <trkpt lat="47.23008" lon="0.01219">
        <ele>59.3</ele>
        <time>2011-09-22T09:24:34Z</time>
      </trkpt>
      <trkpt lat="47.22995" lon="0.01248">
        <ele>61.4</ele>
        <time>2011-09-22T09:24:34Z</time>
      </trkpt>
      <trkpt lat="47.22979" lon="0.01268">
        <ele>60</ele>
        <time>2011-09-22T09:24:34Z</time>
      </trkpt>
      <trkpt lat="47.22926" lon="0.01303">
        <ele>63</ele>
        <time>2011-09-22T09:24:34Z</time>
      </trkpt>
      <trkpt lat="47.22858" lon="0.01407">
        <ele>65.6</ele>
        <time>2011-09-22T09:24:34Z</time>
      </trkpt>
      <trkpt lat="47.22701" lon="0.01238">
        <ele>66.4</ele>
        <time>2011-09-22T09:24:34Z</time>
      </trkpt>
      <trkpt lat="47.2267" lon="0.01201">
        <ele>66.9</ele>
        <time>2011-09-22T09:24:34Z</time>
      </trkpt>
      <trkpt lat="47.22647" lon="0.01184">
        <ele>66.9</ele>
        <time>2011-09-22T09:24:34Z</time>
      </trkpt>
      <trkpt lat="47.22596" lon="0.01137">
        <ele>68</ele>
        <time>2011-09-22T09:24:34Z</time>
      </trkpt>
      <trkpt lat="47.22544" lon="0.01072">
        <ele>69.6</ele>
        <time>2011-09-22T09:24:34Z</time>
      </trkpt>
      <trkpt lat="47.22478" lon="0.01016">
        <ele>70.6</ele>
        <time>2011-09-22T09:24:34Z</time>
      </trkpt>
      <trkpt lat="47.22452" lon="0.0098">
        <ele>68.6</ele>
        <time>2011-09-22T09:24:34Z</time>
      </trkpt>
      <trkpt lat="47.22394" lon="0.00862">
        <ele>63.5</ele>
        <time>2011-09-22T09:24:34Z</time>
      </trkpt>
      <trkpt lat="47.22367" lon="0.00873">
        <ele>62.3</ele>
        <time>2011-09-22T09:24:34Z</time>
      </trkpt>
      <trkpt lat="47.22339" lon="0.00902">
        <ele>59</ele>
        <time>2011-09-22T09:24:34Z</time>
      </trkpt>
      <trkpt lat="47.22271" lon="0.0099">
        <ele>52.7</ele>
        <time>2011-09-22T09:24:34Z</time>
      </trkpt>
      <trkpt lat="47.2223" lon="0.01029">
        <ele>50.5</ele>
        <time>2011-09-22T09:24:34Z</time>
      </trkpt>
      <trkpt lat="47.22114" lon="0.01133">
        <ele>50.9</ele>
        <time>2011-09-22T09:24:34Z</time>
      </trkpt>
      <trkpt lat="47.22103" lon="0.01161">
        <ele>52.3</ele>
        <time>2011-09-22T09:24:34Z</time>
      </trkpt>
      <trkpt lat="47.2205" lon="0.0128">
        <ele>61.8</ele>
        <time>2011-09-22T09:24:34Z</time>
      </trkpt>
      <trkpt lat="47.22017" lon="0.01388">
        <ele>72</ele>
        <time>2011-09-22T09:24:34Z</time>
      </trkpt>
      <trkpt lat="47.22011" lon="0.01486">
        <ele>78</ele>
        <time>2011-09-22T09:24:34Z</time>
      </trkpt>
      <trkpt lat="47.22015" lon="0.01516">
        <ele>79.6</ele>
        <time>2011-09-22T09:24:34Z</time>
      </trkpt>
      <trkpt lat="47.22032" lon="0.01606">
        <ele>79.1</ele>
        <time>2011-09-22T09:24:34Z</time>
      </trkpt>
      <trkpt lat="47.2204" lon="0.01663">
        <ele>78.6</ele>
        <time>2011-09-22T09:24:34Z</time>
      </trkpt>
      <trkpt lat="47.22041" lon="0.01697">
        <ele>78</ele>
        <time>2011-09-22T09:24:34Z</time>
      </trkpt>
      <trkpt lat="47.22038" lon="0.01735">
        <ele>77.7</ele>
        <time>2011-09-22T09:24:34Z</time>
      </trkpt>
      <trkpt lat="47.22026" lon="0.01886">
        <ele>76.2</ele>
        <time>2011-09-22T09:24:34Z</time>
      </trkpt>
      <trkpt lat="47.22097" lon="0.01937">
        <ele>72.5</ele>
        <time>2011-09-22T09:24:34Z</time>
      </trkpt>
      <trkpt lat="47.22104" lon="0.01949">
        <ele>72.1</ele>
        <time>2011-09-22T09:24:34Z</time>
      </trkpt>
      <trkpt lat="47.2211" lon="0.01975">
        <ele>71.1</ele>
        <time>2011-09-22T09:24:34Z</time>
      </trkpt>
      <trkpt lat="47.22116" lon="0.01989">
        <ele>70.8</ele>
        <time>2011-09-22T09:24:34Z</time>
      </trkpt>
      <trkpt lat="47.22134" lon="0.02007">
        <ele>70.2</ele>
        <time>2011-09-22T09:24:34Z</time>
      </trkpt>
      <trkpt lat="47.22222" lon="0.02107">
        <ele>67</ele>
        <time>2011-09-22T09:24:34Z</time>
      </trkpt>
      <trkpt lat="47.22297" lon="0.02181">
        <ele>64.3</ele>
        <time>2011-09-22T09:24:34Z</time>
      </trkpt>
      <trkpt lat="47.22343" lon="0.02216">
        <ele>61.7</ele>
        <time>2011-09-22T09:24:34Z</time>
      </trkpt>
      <trkpt lat="47.22322" lon="0.02279">
        <ele>62.6</ele>
        <time>2011-09-22T09:24:34Z</time>
      </trkpt>
      <trkpt lat="47.22393" lon="0.02312">
        <ele>56.8</ele>
        <time>2011-09-22T09:24:34Z</time>
      </trkpt>
      <trkpt lat="47.22453" lon="0.02315">
        <ele>49.6</ele>
        <time>2011-09-22T09:24:34Z</time>
      </trkpt>
      <trkpt lat="47.22455" lon="0.02278">
        <ele>49.2</ele>
        <time>2011-09-22T09:24:34Z</time>
      </trkpt>
      <trkpt lat="47.22472" lon="0.02271">
        <ele>48.5</ele>
        <time>2011-09-22T09:24:34Z</time>
      </trkpt>
      <trkpt lat="47.2248" lon="0.02278">
        <ele>46.7</ele>
        <time>2011-09-22T09:24:34Z</time>
      </trkpt>
      <trkpt lat="47.22475" lon="0.02322">
        <ele>47.7</ele>
        <time>2011-09-22T09:24:34Z</time>
      </trkpt>
      <trkpt lat="47.22513" lon="0.0233">
        <ele>37.9</ele>
        <time>2011-09-22T09:24:34Z</time>
      </trkpt>
      <trkpt lat="47.22515" lon="0.02356">
        <ele>38.1</ele>
        <time>2011-09-22T09:24:34Z</time>
      </trkpt>
      <trkpt lat="47.22512" lon="0.02386">
        <ele>36.7</ele>
        <time>2011-09-22T09:24:34Z</time>
      </trkpt>
      <trkpt lat="47.22491" lon="0.02457">
        <ele>39.1</ele>
        <time>2011-09-22T09:24:34Z</time>
      </trkpt>
      <trkpt lat="47.22457" lon="0.02551">
        <ele>38.7</ele>
        <time>2011-09-22T09:24:34Z</time>
      </trkpt>
      <trkpt lat="47.22436" lon="0.02605">
        <ele>41.3</ele>
        <time>2011-09-22T09:24:34Z</time>
      </trkpt>
      <trkpt lat="47.22431" lon="0.02646">
        <ele>36.5</ele>
        <time>2011-09-22T09:24:34Z</time>
      </trkpt>
      <trkpt lat="47.22425" lon="0.02677">
        <ele>36.8</ele>
        <time>2011-09-22T09:24:34Z</time>
      </trkpt>
      <trkpt lat="47.22407" lon="0.02732">
        <ele>34.9</ele>
        <time>2011-09-22T09:24:34Z</time>
      </trkpt>
      <trkpt lat="47.22395" lon="0.02758">
        <ele>36.8</ele>
        <time>2011-09-22T09:24:34Z</time>
      </trkpt>
      <trkpt lat="47.22376" lon="0.02777">
        <ele>39.1</ele>
        <time>2011-09-22T09:24:34Z</time>
      </trkpt>
      <trkpt lat="47.22351" lon="0.02788">
        <ele>42.2</ele>
        <time>2011-09-22T09:24:34Z</time>
      </trkpt>
      <trkpt lat="47.22345" lon="0.02805">
        <ele>39.1</ele>
        <time>2011-09-22T09:24:34Z</time>
      </trkpt>
      <trkpt lat="47.22319" lon="0.02806">
        <ele>36.4</ele>
        <time>2011-09-22T09:24:34Z</time>
      </trkpt>
      <trkpt lat="47.22308" lon="0.02844">
        <ele>33.5</ele>
        <time>2011-09-22T09:24:34Z</time>
      </trkpt>
      <trkpt lat="47.22308" lon="0.02857">
        <ele>33</ele>
        <time>2011-09-22T09:24:34Z</time>
      </trkpt>
      <trkpt lat="47.22302" lon="0.02887">
        <ele>33.4</ele>
        <time>2011-09-22T09:24:34Z</time>
      </trkpt>
      <trkpt lat="47.22308" lon="0.02857">
        <ele>33</ele>
        <time>2011-09-22T09:24:34Z</time>
      </trkpt>
      <trkpt lat="47.22308" lon="0.02844">
        <ele>33.5</ele>
        <time>2011-09-22T09:24:34Z</time>
      </trkpt>
      <trkpt lat="47.22319" lon="0.02806">
        <ele>36.4</ele>
        <time>2011-09-22T09:24:34Z</time>
      </trkpt>
      <trkpt lat="47.22345" lon="0.02805">
        <ele>39.1</ele>
        <time>2011-09-22T09:24:34Z</time>
      </trkpt>
      <trkpt lat="47.22351" lon="0.02788">
        <ele>42.2</ele>
        <time>2011-09-22T09:24:34Z</time>
      </trkpt>
      <trkpt lat="47.22376" lon="0.02777">
        <ele>39.1</ele>
        <time>2011-09-22T09:24:34Z</time>
      </trkpt>
      <trkpt lat="47.22395" lon="0.02758">
        <ele>36.8</ele>
        <time>2011-09-22T09:24:34Z</time>
      </trkpt>
      <trkpt lat="47.22407" lon="0.02732">
        <ele>34.9</ele>
        <time>2011-09-22T09:24:34Z</time>
      </trkpt>
      <trkpt lat="47.22425" lon="0.02677">
        <ele>36.8</ele>
        <time>2011-09-22T09:24:34Z</time>
      </trkpt>
      <trkpt lat="47.22431" lon="0.02646">
        <ele>36.5</ele>
        <time>2011-09-22T09:24:34Z</time>
      </trkpt>
      <trkpt lat="47.22436" lon="0.02605">
        <ele>41.3</ele>
        <time>2011-09-22T09:24:34Z</time>
      </trkpt>
      <trkpt lat="47.22457" lon="0.02551">
        <ele>38.7</ele>
        <time>2011-09-22T09:24:34Z</time>
      </trkpt>
      <trkpt lat="47.22491" lon="0.02457">
        <ele>39.1</ele>
        <time>2011-09-22T09:24:34Z</time>
      </trkpt>
      <trkpt lat="47.22512" lon="0.02386">
        <ele>36.7</ele>
        <time>2011-09-22T09:24:34Z</time>
      </trkpt>
      <trkpt lat="47.22515" lon="0.02356">
        <ele>38.1</ele>
        <time>2011-09-22T09:24:34Z</time>
      </trkpt>
      <trkpt lat="47.22513" lon="0.0233">
        <ele>37.9</ele>
        <time>2011-09-22T09:24:34Z</time>
      </trkpt>
      <trkpt lat="47.22475" lon="0.02322">
        <ele>47.7</ele>
        <time>2011-09-22T09:24:34Z</time>
      </trkpt>
      <trkpt lat="47.2248" lon="0.02278">
        <ele>46.7</ele>
        <time>2011-09-22T09:24:34Z</time>
      </trkpt>
      <trkpt lat="47.22472" lon="0.02271">
        <ele>48.5</ele>
        <time>2011-09-22T09:24:34Z</time>
      </trkpt>
      <trkpt lat="47.22455" lon="0.02278">
        <ele>49.2</ele>
        <time>2011-09-22T09:24:34Z</time>
      </trkpt>
      <trkpt lat="47.22453" lon="0.02315">
        <ele>49.6</ele>
        <time>2011-09-22T09:24:34Z</time>
      </trkpt>
      <trkpt lat="47.22393" lon="0.02312">
        <ele>56.8</ele>
        <time>2011-09-22T09:24:34Z</time>
      </trkpt>
      <trkpt lat="47.22322" lon="0.02279">
        <ele>62.6</ele>
        <time>2011-09-22T09:24:34Z</time>
      </trkpt>
      <trkpt lat="47.22343" lon="0.02216">
        <ele>61.7</ele>
        <time>2011-09-22T09:24:34Z</time>
      </trkpt>
      <trkpt lat="47.22297" lon="0.02181">
        <ele>64.3</ele>
        <time>2011-09-22T09:24:34Z</time>
      </trkpt>
      <trkpt lat="47.22222" lon="0.02107">
        <ele>67</ele>
        <time>2011-09-22T09:24:34Z</time>
      </trkpt>
      <trkpt lat="47.22134" lon="0.02007">
        <ele>70.2</ele>
        <time>2011-09-22T09:24:34Z</time>
      </trkpt>
      <trkpt lat="47.22116" lon="0.01989">
        <ele>70.8</ele>
        <time>2011-09-22T09:24:34Z</time>
      </trkpt>
      <trkpt lat="47.2211" lon="0.01975">
        <ele>71.1</ele>
        <time>2011-09-22T09:24:34Z</time>
      </trkpt>
      <trkpt lat="47.22104" lon="0.01949">
        <ele>72.1</ele>
        <time>2011-09-22T09:24:34Z</time>
      </trkpt>
      <trkpt lat="47.22097" lon="0.01937">
        <ele>72.5</ele>
        <time>2011-09-22T09:24:34Z</time>
      </trkpt>
      <trkpt lat="47.22026" lon="0.01886">
        <ele>76.2</ele>
        <time>2011-09-22T09:24:34Z</time>
      </trkpt>
      <trkpt lat="47.22038" lon="0.01735">
        <ele>77.7</ele>
        <time>2011-09-22T09:24:34Z</time>
      </trkpt>
      <trkpt lat="47.22041" lon="0.01697">
        <ele>78</ele>
        <time>2011-09-22T09:24:34Z</time>
      </trkpt>
      <trkpt lat="47.2204" lon="0.01663">
        <ele>78.6</ele>
        <time>2011-09-22T09:24:34Z</time>
      </trkpt>
      <trkpt lat="47.22032" lon="0.01606">
        <ele>79.1</ele>
        <time>2011-09-22T09:24:34Z</time>
      </trkpt>
      <trkpt lat="47.22015" lon="0.01516">
        <ele>79.6</ele>
        <time>2011-09-22T09:24:34Z</time>
      </trkpt>
      <trkpt lat="47.22011" lon="0.01486">
        <ele>78</ele>
        <time>2011-09-22T09:24:34Z</time>
      </trkpt>
      <trkpt lat="47.21964" lon="0.01479">
        <ele>78.3</ele>
        <time>2011-09-22T09:24:34Z</time>
      </trkpt>
      <trkpt lat="47.21843" lon="0.01439">
        <ele>79.1</ele>
        <time>2011-09-22T09:24:34Z</time>
      </trkpt>
      <trkpt lat="47.21788" lon="0.01439">
        <ele>78.2</ele>
        <time>2011-09-22T09:24:34Z</time>
      </trkpt>
      <trkpt lat="47.21764" lon="0.01462">
        <ele>79.1</ele>
        <time>2011-09-22T09:24:34Z</time>
      </trkpt>
      <trkpt lat="47.21633" lon="0.01464">
        <ele>82.9</ele>
        <time>2011-09-22T09:24:34Z</time>
      </trkpt>
      <trkpt lat="47.2159" lon="0.01463">
        <ele>83.7</ele>
        <time>2011-09-22T09:24:34Z</time>
      </trkpt>
      <trkpt lat="47.21555" lon="0.01454">
        <ele>83</ele>
        <time>2011-09-22T09:24:34Z</time>
      </trkpt>
      <trkpt lat="47.21505" lon="0.01447">
        <ele>80.3</ele>
        <time>2011-09-22T09:24:34Z</time>
      </trkpt>
      <trkpt lat="47.21508" lon="0.01429">
        <ele>79.9</ele>
        <time>2011-09-22T09:24:34Z</time>
      </trkpt>
      <trkpt lat="47.21565" lon="0.01337">
        <ele>73.4</ele>
        <time>2011-09-22T09:24:34Z</time>
      </trkpt>
      <trkpt lat="47.2171" lon="0.01226">
        <ele>62.6</ele>
        <time>2011-09-22T09:24:34Z</time>
      </trkpt>
      <trkpt lat="47.21751" lon="0.01177">
        <ele>59.3</ele>
        <time>2011-09-22T09:24:34Z</time>
      </trkpt>
      <trkpt lat="47.21779" lon="0.01126">
        <ele>57.5</ele>
        <time>2011-09-22T09:24:34Z</time>
      </trkpt>
      <trkpt lat="47.2181" lon="0.01082">
        <ele>56.8</ele>
        <time>2011-09-22T09:24:34Z</time>
      </trkpt>
      <trkpt lat="47.21741" lon="0.01015">
        <ele>58</ele>
        <time>2011-09-22T09:24:34Z</time>
      </trkpt>
      <trkpt lat="47.21627" lon="0.00883">
        <ele>61.5</ele>
        <time>2011-09-22T09:24:34Z</time>
      </trkpt>
      <trkpt lat="47.2161" lon="0.00885">
        <ele>62.1</ele>
        <time>2011-09-22T09:24:34Z</time>
      </trkpt>
      <trkpt lat="47.21601" lon="0.00871">
        <ele>62.6</ele>
        <time>2011-09-22T09:24:34Z</time>
      </trkpt>
      <trkpt lat="47.21556" lon="0.00702">
        <ele>69.5</ele>
        <time>2011-09-22T09:24:34Z</time>
      </trkpt>
      <trkpt lat="47.21576" lon="0.00687">
        <ele>71.3</ele>
        <time>2011-09-22T09:24:34Z</time>
      </trkpt>
      <trkpt lat="47.21607" lon="0.00631">
        <ele>72.8</ele>
        <time>2011-09-22T09:24:34Z</time>
      </trkpt>
      <trkpt lat="47.21645" lon="0.00673">
        <ele>69.7</ele>
        <time>2011-09-22T09:24:34Z</time>
      </trkpt>
      <trkpt lat="47.21653" lon="0.00657">
        <ele>70</ele>
        <time>2011-09-22T09:24:34Z</time>
      </trkpt>
      <trkpt lat="47.21763" lon="0.00471">
        <ele>66.6</ele>
        <time>2011-09-22T09:24:34Z</time>
      </trkpt>
      <trkpt lat="47.21786" lon="0.00423">
        <ele>64.4</ele>
        <time>2011-09-22T09:24:34Z</time>
      </trkpt>
      <trkpt lat="47.21774" lon="0.00347">
        <ele>66.1</ele>
        <time>2011-09-22T09:24:34Z</time>
      </trkpt>
      <trkpt lat="47.21734" lon="0.00178">
        <ele>70.2</ele>
        <time>2011-09-22T09:24:34Z</time>
      </trkpt>
      <trkpt lat="47.21719" lon="0.00149">
        <ele>69.6</ele>
        <time>2011-09-22T09:24:34Z</time>
      </trkpt>
      <trkpt lat="47.21719" lon="0.00135">
        <ele>69.1</ele>
        <time>2011-09-22T09:24:34Z</time>
      </trkpt>
      <trkpt lat="47.21748" lon="0.0008">
        <ele>66</ele>
        <time>2011-09-22T09:24:34Z</time>
      </trkpt>
      <trkpt lat="47.2176" lon="0.00026">
        <ele>65</ele>
        <time>2011-09-22T09:24:34Z</time>
      </trkpt>
      <trkpt lat="47.21755" lon="-4.0E-5">
        <ele>65</ele>
        <time>2011-09-22T09:24:34Z</time>
      </trkpt>
      <trkpt lat="47.21761" lon="-0.00046">
        <ele>66.3</ele>
        <time>2011-09-22T09:24:34Z</time>
      </trkpt>
      <trkpt lat="47.2177" lon="-0.00073">
        <ele>67.6</ele>
        <time>2011-09-22T09:24:34Z</time>
      </trkpt>
      <trkpt lat="47.21836" lon="-0.00204">
        <ele>76.6</ele>
        <time>2011-09-22T09:24:34Z</time>
      </trkpt>
      <trkpt lat="47.21929" lon="-0.00434">
        <ele>88.4</ele>
        <time>2011-09-22T09:24:34Z</time>
      </trkpt>
      <trkpt lat="47.21962" lon="-0.0045">
        <ele>89.6</ele>
        <time>2011-09-22T09:24:34Z</time>
      </trkpt>
      <trkpt lat="47.21979" lon="-0.00453">
        <ele>90.2</ele>
        <time>2011-09-22T09:24:34Z</time>
      </trkpt>
      <trkpt lat="47.22028" lon="-0.00452">
        <ele>91</ele>
        <time>2011-09-22T09:24:34Z</time>
      </trkpt>
      <trkpt lat="47.22041" lon="-0.00455">
        <ele>91.5</ele>
        <time>2011-09-22T09:24:34Z</time>
      </trkpt>
      <trkpt lat="47.22116" lon="-0.00481">
        <ele>92.3</ele>
        <time>2011-09-22T09:24:34Z</time>
      </trkpt>
      <trkpt lat="47.22154" lon="-0.00511">
        <ele>92.4</ele>
        <time>2011-09-22T09:24:34Z</time>
      </trkpt>
      <trkpt lat="47.22218" lon="-0.00537">
        <ele>90.9</ele>
        <time>2011-09-22T09:24:34Z</time>
      </trkpt>
      <trkpt lat="47.22252" lon="-0.00539">
        <ele>89.8</ele>
        <time>2011-09-22T09:24:34Z</time>
      </trkpt>
      <trkpt lat="47.22267" lon="-0.00532">
        <ele>89.8</ele>
        <time>2011-09-22T09:24:34Z</time>
      </trkpt>
      <trkpt lat="47.22322" lon="-0.00496">
        <ele>88.7</ele>
        <time>2011-09-22T09:24:34Z</time>
      </trkpt>
      <trkpt lat="47.22313" lon="-0.00556">
        <ele>91</ele>
        <time>2011-09-22T09:24:34Z</time>
      </trkpt>
      <trkpt lat="47.22294" lon="-0.00621">
        <ele>92.2</ele>
        <time>2011-09-22T09:24:34Z</time>
      </trkpt>
      <trkpt lat="47.22249" lon="-0.00748">
        <ele>93</ele>
        <time>2011-09-22T09:24:34Z</time>
      </trkpt>
      <trkpt lat="47.22222" lon="-0.00797">
        <ele>92</ele>
        <time>2011-09-22T09:24:34Z</time>
      </trkpt>
      <trkpt lat="47.22196" lon="-0.00828">
        <ele>92</ele>
        <time>2011-09-22T09:24:34Z</time>
      </trkpt>
      <trkpt lat="47.22088" lon="-0.01044">
        <ele>88.5</ele>
        <time>2011-09-22T09:24:34Z</time>
      </trkpt>
      <trkpt lat="47.22071" lon="-0.01069">
        <ele>87.8</ele>
        <time>2011-09-22T09:24:34Z</time>
      </trkpt>
      <trkpt lat="47.21991" lon="-0.01163">
        <ele>84.1</ele>
        <time>2011-09-22T09:24:34Z</time>
      </trkpt>
      <trkpt lat="47.21958" lon="-0.01215">
        <ele>83.1</ele>
        <time>2011-09-22T09:24:34Z</time>
      </trkpt>
      <trkpt lat="47.21892" lon="-0.01357">
        <ele>82.9</ele>
        <time>2011-09-22T09:24:34Z</time>
      </trkpt>
      <trkpt lat="47.21606" lon="-0.01695">
        <ele>80</ele>
        <time>2011-09-22T09:24:34Z</time>
      </trkpt>
      <trkpt lat="47.21579" lon="-0.01741">
        <ele>79.8</ele>
        <time>2011-09-22T09:24:34Z</time>
      </trkpt>
      <trkpt lat="47.21529" lon="-0.01873">
        <ele>79</ele>
        <time>2011-09-22T09:24:34Z</time>
      </trkpt>
      <trkpt lat="47.215" lon="-0.01942">
        <ele>79</ele>
        <time>2011-09-22T09:24:34Z</time>
      </trkpt>
      <trkpt lat="47.21415" lon="-0.02115">
        <ele>81</ele>
        <time>2011-09-22T09:24:34Z</time>
      </trkpt>
      <trkpt lat="47.21391" lon="-0.02149">
        <ele>80.1</ele>
        <time>2011-09-22T09:24:34Z</time>
      </trkpt>
      <trkpt lat="47.21384" lon="-0.02173">
        <ele>79.6</ele>
        <time>2011-09-22T09:24:34Z</time>
      </trkpt>
      <trkpt lat="47.21376" lon="-0.0224">
        <ele>76.6</ele>
        <time>2011-09-22T09:24:34Z</time>
      </trkpt>
      <trkpt lat="47.21384" lon="-0.02253">
        <ele>76.2</ele>
        <time>2011-09-22T09:24:34Z</time>
      </trkpt>
      <trkpt lat="47.21384" lon="-0.02289">
        <ele>72.1</ele>
        <time>2011-09-22T09:24:34Z</time>
      </trkpt>
      <trkpt lat="47.21365" lon="-0.02342">
        <ele>67.9</ele>
        <time>2011-09-22T09:24:34Z</time>
      </trkpt>
      <trkpt lat="47.21348" lon="-0.02361">
        <ele>67</ele>
        <time>2011-09-22T09:24:34Z</time>
      </trkpt>
      <trkpt lat="47.21344" lon="-0.02383">
        <ele>67</ele>
        <time>2011-09-22T09:24:34Z</time>
      </trkpt>
      <trkpt lat="47.2137" lon="-0.0239">
        <ele>67.3</ele>
        <time>2011-09-22T09:24:34Z</time>
      </trkpt>
      <trkpt lat="47.21373" lon="-0.02423">
        <ele>68.6</ele>
        <time>2011-09-22T09:24:34Z</time>
      </trkpt>
      <trkpt lat="47.21463" lon="-0.02432">
        <ele>70.8</ele>
        <time>2011-09-22T09:24:34Z</time>
      </trkpt>
      <trkpt lat="47.21584" lon="-0.02566">
        <ele>73.4</ele>
        <time>2011-09-22T09:24:34Z</time>
      </trkpt>
      <trkpt lat="47.21606" lon="-0.02583">
        <ele>74</ele>
        <time>2011-09-22T09:24:34Z</time>
      </trkpt>
      <trkpt lat="47.2163" lon="-0.02596">
        <ele>74</ele>
        <time>2011-09-22T09:24:34Z</time>
      </trkpt>
      <trkpt lat="47.21668" lon="-0.02609">
        <ele>74</ele>
        <time>2011-09-22T09:24:34Z</time>
      </trkpt>
      <trkpt lat="47.21651" lon="-0.02763">
        <ele>76.3</ele>
        <time>2011-09-22T09:24:34Z</time>
      </trkpt>
      <trkpt lat="47.21649" lon="-0.02808">
        <ele>77.1</ele>
        <time>2011-09-22T09:24:34Z</time>
      </trkpt>
      <trkpt lat="47.21657" lon="-0.02894">
        <ele>79.6</ele>
        <time>2011-09-22T09:24:34Z</time>
      </trkpt>
      <trkpt lat="47.21651" lon="-0.02936">
        <ele>80.1</ele>
        <time>2011-09-22T09:24:34Z</time>
      </trkpt>
      <trkpt lat="47.21651" lon="-0.03017">
        <ele>80.4</ele>
        <time>2011-09-22T09:24:34Z</time>
      </trkpt>
      <trkpt lat="47.2166" lon="-0.03088">
        <ele>81</ele>
        <time>2011-09-22T09:24:34Z</time>
      </trkpt>
      <trkpt lat="47.21676" lon="-0.03124">
        <ele>81</ele>
        <time>2011-09-22T09:24:34Z</time>
      </trkpt>
      <trkpt lat="47.21712" lon="-0.03161">
        <ele>81.5</ele>
        <time>2011-09-22T09:24:34Z</time>
      </trkpt>
      <trkpt lat="47.21737" lon="-0.03214">
        <ele>81.8</ele>
        <time>2011-09-22T09:24:34Z</time>
      </trkpt>
      <trkpt lat="47.21845" lon="-0.03382">
        <ele>79</ele>
        <time>2011-09-22T09:24:34Z</time>
      </trkpt>
      <trkpt lat="47.21885" lon="-0.03407">
        <ele>78.4</ele>
        <time>2011-09-22T09:24:34Z</time>
      </trkpt>
      <trkpt lat="47.21992" lon="-0.03531">
        <ele>76.3</ele>
        <time>2011-09-22T09:24:34Z</time>
      </trkpt>
      <trkpt lat="47.22044" lon="-0.03549">
        <ele>69.1</ele>
        <time>2011-09-22T09:24:34Z</time>
      </trkpt>
      <trkpt lat="47.22075" lon="-0.03571">
        <ele>65.8</ele>
        <time>2011-09-22T09:24:34Z</time>
      </trkpt>
      <trkpt lat="47.2211" lon="-0.0361">
        <ele>63.1</ele>
        <time>2011-09-22T09:24:34Z</time>
      </trkpt>
      <trkpt lat="47.22169" lon="-0.03708">
        <ele>59.9</ele>
        <time>2011-09-22T09:24:34Z</time>
      </trkpt>
      <trkpt lat="47.22202" lon="-0.03792">
        <ele>58</ele>
        <time>2011-09-22T09:24:34Z</time>
      </trkpt>
      <trkpt lat="47.22218" lon="-0.03846">
        <ele>57</ele>
        <time>2011-09-22T09:24:34Z</time>
      </trkpt>
      <trkpt lat="47.22314" lon="-0.03888">
        <ele>58.9</ele>
        <time>2011-09-22T09:24:34Z</time>
      </trkpt>
      <trkpt lat="47.22326" lon="-0.03898">
        <ele>60.2</ele>
        <time>2011-09-22T09:24:34Z</time>
      </trkpt>
      <trkpt lat="47.2234" lon="-0.03946">
        <ele>62</ele>
        <time>2011-09-22T09:24:34Z</time>
      </trkpt>
      <trkpt lat="47.22379" lon="-0.03975">
        <ele>67</ele>
        <time>2011-09-22T09:24:34Z</time>
      </trkpt>
      <trkpt lat="47.22464" lon="-0.04">
        <ele>71.4</ele>
        <time>2011-09-22T09:24:34Z</time>
      </trkpt>
      <trkpt lat="47.22435" lon="-0.04158">
        <ele>57.8</ele>
        <time>2011-09-22T09:24:34Z</time>
      </trkpt>
      <trkpt lat="47.22442" lon="-0.04215">
        <ele>56.1</ele>
        <time>2011-09-22T09:24:34Z</time>
      </trkpt>
      <trkpt lat="47.22465" lon="-0.043">
        <ele>54.9</ele>
        <time>2011-09-22T09:24:34Z</time>
      </trkpt>
      <trkpt lat="47.22467" lon="-0.04363">
        <ele>53.6</ele>
        <time>2011-09-22T09:24:34Z</time>
      </trkpt>
      <trkpt lat="47.22473" lon="-0.04401">
        <ele>53</ele>
        <time>2011-09-22T09:24:34Z</time>
      </trkpt>
      <trkpt lat="47.22475" lon="-0.04437">
        <ele>53</ele>
        <time>2011-09-22T09:24:34Z</time>
      </trkpt>
      <trkpt lat="47.22463" lon="-0.04502">
        <ele>51.6</ele>
        <time>2011-09-22T09:24:34Z</time>
      </trkpt>
      <trkpt lat="47.2251" lon="-0.04504">
        <ele>52.3</ele>
        <time>2011-09-22T09:24:34Z</time>
      </trkpt>
      <trkpt lat="47.22563" lon="-0.04532">
        <ele>52.9</ele>
        <time>2011-09-22T09:24:34Z</time>
      </trkpt>
      <trkpt lat="47.22638" lon="-0.04548">
        <ele>52.3</ele>
        <time>2011-09-22T09:24:34Z</time>
      </trkpt>
      <trkpt lat="47.22699" lon="-0.04599">
        <ele>51</ele>
        <time>2011-09-22T09:24:34Z</time>
      </trkpt>
      <trkpt lat="47.2274" lon="-0.04615">
        <ele>50.9</ele>
        <time>2011-09-22T09:24:34Z</time>
      </trkpt>
      <trkpt lat="47.22818" lon="-0.04659">
        <ele>52.1</ele>
        <time>2011-09-22T09:24:34Z</time>
      </trkpt>
      <trkpt lat="47.22862" lon="-0.04703">
        <ele>54.1</ele>
        <time>2011-09-22T09:24:34Z</time>
      </trkpt>
      <trkpt lat="47.22879" lon="-0.04732">
        <ele>55.3</ele>
        <time>2011-09-22T09:24:34Z</time>
      </trkpt>
      <trkpt lat="47.22911" lon="-0.04978">
        <ele>59.4</ele>
        <time>2011-09-22T09:24:34Z</time>
      </trkpt>
      <trkpt lat="47.22926" lon="-0.05065">
        <ele>59.2</ele>
        <time>2011-09-22T09:24:34Z</time>
      </trkpt>
      <trkpt lat="47.22937" lon="-0.05107">
        <ele>59.6</ele>
        <time>2011-09-22T09:24:34Z</time>
      </trkpt>
      <trkpt lat="47.22948" lon="-0.05141">
        <ele>59.3</ele>
        <time>2011-09-22T09:24:34Z</time>
      </trkpt>
      <trkpt lat="47.2297" lon="-0.05187">
        <ele>60.1</ele>
        <time>2011-09-22T09:24:34Z</time>
      </trkpt>
      <trkpt lat="47.23121" lon="-0.05534">
        <ele>69.5</ele>
        <time>2011-09-22T09:24:34Z</time>
      </trkpt>
      <trkpt lat="47.23149" lon="-0.05586">
        <ele>70.6</ele>
        <time>2011-09-22T09:24:34Z</time>
      </trkpt>
      <trkpt lat="47.23223" lon="-0.05685">
        <ele>67</ele>
        <time>2011-09-22T09:24:34Z</time>
      </trkpt>
      <trkpt lat="47.23247" lon="-0.05725">
        <ele>65.9</ele>
        <time>2011-09-22T09:24:34Z</time>
      </trkpt>
      <trkpt lat="47.23279" lon="-0.05802">
        <ele>65</ele>
        <time>2011-09-22T09:24:34Z</time>
      </trkpt>
      <trkpt lat="47.23285" lon="-0.05769">
        <ele>65</ele>
        <time>2011-09-22T09:24:34Z</time>
      </trkpt>
      <trkpt lat="47.23328" lon="-0.05766">
        <ele>68.1</ele>
        <time>2011-09-22T09:24:34Z</time>
      </trkpt>
      <trkpt lat="47.23345" lon="-0.05763">
        <ele>69.3</ele>
        <time>2011-09-22T09:24:34Z</time>
      </trkpt>
      <trkpt lat="47.23373" lon="-0.05749">
        <ele>71.2</ele>
        <time>2011-09-22T09:24:34Z</time>
      </trkpt>
      <trkpt lat="47.23467" lon="-0.05742">
        <ele>74.9</ele>
        <time>2011-09-22T09:24:34Z</time>
      </trkpt>
      <trkpt lat="47.23504" lon="-0.05736">
        <ele>75.2</ele>
        <time>2011-09-22T09:24:34Z</time>
      </trkpt>
      <trkpt lat="47.23575" lon="-0.05713">
        <ele>76.9</ele>
        <time>2011-09-22T09:24:34Z</time>
      </trkpt>
      <trkpt lat="47.23594" lon="-0.05712">
        <ele>76.9</ele>
        <time>2011-09-22T09:24:34Z</time>
      </trkpt>
      <trkpt lat="47.23608" lon="-0.05715">
        <ele>76.8</ele>
        <time>2011-09-22T09:24:34Z</time>
      </trkpt>
      <trkpt lat="47.23706" lon="-0.05744">
        <ele>76.9</ele>
        <time>2011-09-22T09:24:34Z</time>
      </trkpt>
      <trkpt lat="47.23735" lon="-0.05767">
        <ele>77</ele>
        <time>2011-09-22T09:24:34Z</time>
      </trkpt>
      <trkpt lat="47.23789" lon="-0.05764">
        <ele>77</ele>
        <time>2011-09-22T09:24:34Z</time>
      </trkpt>
      <trkpt lat="47.2384" lon="-0.05777">
        <ele>75.8</ele>
        <time>2011-09-22T09:24:34Z</time>
      </trkpt>
      <trkpt lat="47.23908" lon="-0.05781">
        <ele>74</ele>
        <time>2011-09-22T09:24:34Z</time>
      </trkpt>
      <trkpt lat="47.2392" lon="-0.05788">
        <ele>73.9</ele>
        <time>2011-09-22T09:24:34Z</time>
      </trkpt>
      <trkpt lat="47.23937" lon="-0.05806">
        <ele>73.3</ele>
        <time>2011-09-22T09:24:34Z</time>
      </trkpt>
      <trkpt lat="47.23956" lon="-0.05804">
        <ele>72.6</ele>
        <time>2011-09-22T09:24:34Z</time>
      </trkpt>
      <trkpt lat="47.24038" lon="-0.05768">
        <ele>71.8</ele>
        <time>2011-09-22T09:24:34Z</time>
      </trkpt>
      <trkpt lat="47.24013" lon="-0.05666">
        <ele>72</ele>
        <time>2011-09-22T09:24:34Z</time>
      </trkpt>
      <trkpt lat="47.23992" lon="-0.05613">
        <ele>72.3</ele>
        <time>2011-09-22T09:24:34Z</time>
      </trkpt>
      <trkpt lat="47.23973" lon="-0.05598">
        <ele>72.5</ele>
        <time>2011-09-22T09:24:34Z</time>
      </trkpt>
      <trkpt lat="47.23965" lon="-0.05594">
        <ele>72.5</ele>
        <time>2011-09-22T09:24:34Z</time>
      </trkpt>
      <trkpt lat="47.23955" lon="-0.0558">
        <ele>72.5</ele>
        <time>2011-09-22T09:24:34Z</time>
      </trkpt>
      <trkpt lat="47.23942" lon="-0.05558">
        <ele>72.2</ele>
        <time>2011-09-22T09:24:34Z</time>
      </trkpt>
      <trkpt lat="47.23921" lon="-0.05511">
        <ele>72.2</ele>
        <time>2011-09-22T09:24:34Z</time>
      </trkpt>
      <trkpt lat="47.2389" lon="-0.05455">
        <ele>73.4</ele>
        <time>2011-09-22T09:24:34Z</time>
      </trkpt>
      <trkpt lat="47.23965" lon="-0.05412">
        <ele>71.4</ele>
        <time>2011-09-22T09:24:34Z</time>
      </trkpt>
      <trkpt lat="47.23978" lon="-0.05407">
        <ele>71.4</ele>
        <time>2011-09-22T09:24:34Z</time>
      </trkpt>
      <trkpt lat="47.23995" lon="-0.05405">
        <ele>71.4</ele>
        <time>2011-09-22T09:24:34Z</time>
      </trkpt>
      <trkpt lat="47.24111" lon="-0.05392">
        <ele>68.9</ele>
        <time>2011-09-22T09:24:34Z</time>
      </trkpt>
      <trkpt lat="47.24175" lon="-0.05369">
        <ele>67.3</ele>
        <time>2011-09-22T09:24:34Z</time>
      </trkpt>
      <trkpt lat="47.24205" lon="-0.05349">
        <ele>69.2</ele>
        <time>2011-09-22T09:24:34Z</time>
      </trkpt>
      <trkpt lat="47.24263" lon="-0.05311">
        <ele>75</ele>
        <time>2011-09-22T09:24:34Z</time>
      </trkpt>
      <trkpt lat="47.24294" lon="-0.05294">
        <ele>77.4</ele>
        <time>2011-09-22T09:24:34Z</time>
      </trkpt>
      <trkpt lat="47.24356" lon="-0.05227">
        <ele>81.6</ele>
        <time>2011-09-22T09:24:34Z</time>
      </trkpt>
      <trkpt lat="47.24422" lon="-0.05167">
        <ele>84.2</ele>
        <time>2011-09-22T09:24:34Z</time>
      </trkpt>
      <trkpt lat="47.24498" lon="-0.05083">
        <ele>88.9</ele>
        <time>2011-09-22T09:24:34Z</time>
      </trkpt>
      <trkpt lat="47.2459" lon="-0.05172">
        <ele>90.5</ele>
        <time>2011-09-22T09:24:34Z</time>
      </trkpt>
      <trkpt lat="47.24619" lon="-0.05216">
        <ele>92.3</ele>
        <time>2011-09-22T09:24:34Z</time>
      </trkpt>
      <trkpt lat="47.24695" lon="-0.05388">
        <ele>93</ele>
        <time>2011-09-22T09:24:34Z</time>
      </trkpt>
      <trkpt lat="47.24836" lon="-0.05729">
        <ele>87.2</ele>
        <time>2011-09-22T09:24:34Z</time>
      </trkpt>
      <trkpt lat="47.24868" lon="-0.05881">
        <ele>85.2</ele>
        <time>2011-09-22T09:24:34Z</time>
      </trkpt>
      <trkpt lat="47.24981" lon="-0.06017">
        <ele>88.9</ele>
        <time>2011-09-22T09:24:34Z</time>
      </trkpt>
      <trkpt lat="47.25089" lon="-0.06274">
        <ele>92.7</ele>
        <time>2011-09-22T09:24:34Z</time>
      </trkpt>
      <trkpt lat="47.25171" lon="-0.06338">
        <ele>90.1</ele>
        <time>2011-09-22T09:24:34Z</time>
      </trkpt>
      <trkpt lat="47.25289" lon="-0.06507">
        <ele>84.7</ele>
        <time>2011-09-22T09:24:34Z</time>
      </trkpt>
      <trkpt lat="47.25311" lon="-0.06581">
        <ele>85.4</ele>
        <time>2011-09-22T09:24:34Z</time>
      </trkpt>
      <trkpt lat="47.25331" lon="-0.06618">
        <ele>84.4</ele>
        <time>2011-09-22T09:24:34Z</time>
      </trkpt>
      <trkpt lat="47.25378" lon="-0.06678">
        <ele>84.3</ele>
        <time>2011-09-22T09:24:34Z</time>
      </trkpt>
      <trkpt lat="47.25555" lon="-0.0693">
        <ele>82.5</ele>
        <time>2011-09-22T09:24:34Z</time>
      </trkpt>
      <trkpt lat="47.25591" lon="-0.07013">
        <ele>77.5</ele>
        <time>2011-09-22T09:24:34Z</time>
      </trkpt>
      <trkpt lat="47.25596" lon="-0.07041">
        <ele>76.9</ele>
        <time>2011-09-22T09:24:34Z</time>
      </trkpt>
      <trkpt lat="47.25591" lon="-0.07068">
        <ele>77.1</ele>
        <time>2011-09-22T09:24:34Z</time>
      </trkpt>
      <trkpt lat="47.25568" lon="-0.0713">
        <ele>75.5</ele>
        <time>2011-09-22T09:24:34Z</time>
      </trkpt>
    </trkseg>
  </trk>
</gpx>